Погода в Багдарине

Погода в Багдарине : погода сейчас, прогноз погоды и архив. Всё, что Вы хотите узнать о погоде в Багдарине!

Поиск расширенной информации на нашем сайте:

Другие новости

Новости СМИ2

Главная страница сайта

Новости сайта

03.07.2017

Напоминаем, что на нашем специализированном сайте Метеоцентр.Азия вы можете получить высокодетализированные автоматические прогнозы погоды по пунктам России, СНГ и мира в авиационном формате (включающие направление и скорость ветра, видимость, явления погоды, количество и форму облачности, нижнюю и верхнюю границу облачности).


Погода в Багдарине - сегодня

Время (UTC), дата Ветер
(°,м/с) 
Видим.   Явления Облачность Т
(°С)
Тd
(°С)
f(%) Тe
(°С)
Pmin
(гПа)
dP
(гПа)
Po
(мм)
O2
(г/м3)
Тmin Tmax R s Состояние
почвы
15 18.09.17 тихо ()   н/о    н/о 
-2.3 -3.8 89 -2  1017  682  277           
18 18.09.17 тихо ()   н/о    ясно 
-4.5 -5.4 93 -5  1019  0.9  682  280           
21 18.09.17 тихо ()   н/о    ясно 
-2.8 -4.1 91 -3  1017.8  -0.4  682  278           
00 19.09.17 тихо ()   20000 м    9/1 1000 м средняя, верхняя 
[Sc|Ac lent|Ci fib]
-0.4 -3.5 80 -0  1016.7  0.1  682  275  -4.9        влажная 
03 19.09.17 130 (ЮВ) 20000 м    10/0 средняя, верхняя 
[Ac lent|Ci fib]
+8 -2.4 48 +8  1011.7  -1.4  681  267           
06 19.09.17 340 (С) 20000 м    10/3 1000 м средняя, верхняя 
[Sc|Ac lent|Ci sp]
+12.2 -0.9 40 +13  1008.4  -1.5  680  262           
09 19.09.17 010 (С) 20000 м    10/4 1000 м средняя, верхняя 
[Sc diur, vesp|Ac lent|Ci fib]
+11.7 -0.7 42 +13  1007.5  -1  679  262           
12 19.09.17 300 (СЗ) н/о    10/3 1000 м средняя, верхняя 
[Sc|Ac trans|Ci fib]
+6.5 +0.8 67 +7  1009.7  0.2  679  267    +12.8       
15 19.09.17 340 (С) н/о    ясно 
+3.2 -0.3 78 +4  1011.4  0.3  679  270           
18 19.09.17 тихо ()   н/о    ясно 
-0.9 -1.8 94 -1  1012.9  -0.2  679  275           
21 19.09.17 тихо ()   н/о    10/3 1000 м средняя, верхняя 
[Sc|Ac lent|Ci fib]
-0.3 -1.1 94 -0  1011.6  -0.9  679  274           
00 20.09.17 тихо ()   20000 м    10/3 1000 м средняя, верхняя 
[Sc|Ac trans|Ci fib]
+2.2 +0.2 87 +2  1009.9  -0.6  678  271  -1        влажная 
03 20.09.17 080 (В) 20000 м    10/6 1000 м кучево-дожд., верхняя 
[Cb cap|Ci fib]
+9.4 +0.5 54 +10  1005.9  -1  677  264           
06 20.09.17 080 (В) 20000 м    10/9 1000 м верхняя 
[Sc|Ci fib]
+12.6 +0.2 42 +13  1002.8  -1.7  676  260           
09 20.09.17 070 (В) 20000 м    10/8 1000 м кучево-дожд., верхняя 
[Cb cap|Ci sp]
+12.2 +1.1 47 +13  1002.2  -0.7  676  260           
12 20.09.17 060 (СВ) н/о    10/4 1000 м средняя, верхняя 
[Sc diur, vesp|Ac und|Ci sp]
+9.5 +1.2 56 +10  1002.9  -0.3  675  263    +13       
15 20.09.17 020 (С) н/о    10/5 1000 м средняя 
[Sc diur, vesp|Ac As]
+7.2 +2.3 71 +6  1003.4  -0.2  675  265           
18 20.09.17 010 (С) н/о    10/0 средняя, верхняя 
[Ac lent|Ci fib]
+4 +1.7 85 +5  1004  -0.7             
21 20.09.17 190 (Ю) н/о    10/4 1000 м средняя, верхняя 
[Sc diur, vesp|Ac lent|Ci fib]
+4.7 +2 83 +6  1002.7  -0.9             
00 21.09.17 тихо ()   20000 м  {ливн. осадки}  10/8 1000 м кучево-дожд., средняя 
[Cb cap|As op]
+5.6 +3.5 86 +6  1002.1  -0.2    +2.8    0.0    влажная 
03 21.09.17 050 (СВ) 20000 м    10/8 1000 м кучево-дожд., средняя 
[Cb calv|Ac trans]
+6.9 +2 71 +6  1000.9  -0.6             
06 21.09.17 340 (С) 20000 м    10/8 1000 м кучево-дожд., средняя 
[Cb cap|Ac trans]
+6.7 +2.2 73 +5  1000.2  -0.7             
09 21.09.17 350 (С) 5{10}  20000 м    10/8 1000 м средняя 
[Sc diur, vesp|Ac trans]
+6.3 +1.3 70 +4  999.6  -0.7             
12 21.09.17 340 (С) 4{10}  н/о    10/9 1000 м средняя 
[Sc|Ac trans]
+5.5 +0.7 71 +4  1000.2  0.3      +7       
15 21.09.17 330 (СЗ) н/о  слаб. ливневой дождь  10/8 1000 м кучево-дожд., средняя 
[Cb cap|Ac trans]
+3.9 +1.8 86 +3  999.7  -1             
Время (UTC), дата Ветер
(°,м/с) 
Видим.   Явления Облачность Т
(°С)
Тd
(°С)
f(%) Тe
(°С)
Pmin
(гПа)
dP
(гПа)
Po
(мм)
O2
(г/м3)
Тmin Tmax R s Состояние
почвы

Для получения пояснительной информации подведите курсор к названию столбца.

ПОГОДА в Багдарине - архив

Всё, что Вы хотите узнать о погоде в Багдарине - удобно и подробно!

Выберите нужную дату (начиная с 1 января 2015* года) и нажмите кнопку "Найти".
Будут отображены архивные сводки погоды по пункту Багдарин, начиная с указанной даты.


Отображать данные в формате CSV (для использования в таблицах Excel)


Внимание! Наш архив погоды предназначен исключительно для личного некоммерческого использования в познавательных целях. Если Вам необходимы официальные справки о состоянии погоды (для производственных, юридических, коммерческих и т.п. целей), обращайтесь в органы Росгидромета.

*Примечание: данная дата относится к архиву по метеостанциям СССР (Россия, СНГ, Балтия).
Архив по метеостанциям Зарубежной Европы и Азии (кроме Китая) хранится 10 дней, по другим регионам земного шара (Китай, Африка, Америка, Австралия, Океания) - 1 день.

Багдарин - район местоположения метеостанции


Название, широта, долгота, высота метеостанции:
Багдарин 54.5°ш. 113.6°д. 903 м над ур. моря [Российская Федерация]

Дополнительная информация

В oтличие oт бoльшинства пoгoдных сайтoв мы публикуем пoдрoбную метеoинфoрмацию в детальнoм прoфессиoнальнoм фoрмате.

Характеристики температуры и влажнoсти вoздуха измеряются на высoте 2 м в тени вдали oт зданий и деревьев.
Скoрoсть ветра измеряется на высoте 10 м (на урoвне рoста челoвека скoрoсть ветра ниже в 1.5-2 раза). Если метеoстанция нахoдится в гoрoде или в лесу, тo скoрoсть ветра занижена на 2-4 м/с пo сравнению с oткрытым местoм. Скoрoсть ветра над акватoриями крупных рек и oзёр, а также на вершинах хoлмoв на 2-5 м/с выше, чем в oбычных услoвиях.
Атмoсфернoе давление в разных тoчках местнoсти мoжет значительнo oтличаться oт давления на метеoстанции, в зависимoсти oт услoвий рельефа (при пoдъёме на 10 м давление пoнижается примернo на 1 мм рт.ст.).